GFSFLT2_sfc_dewp_090.txt.gz
Dewpoint
70 69 70 70 69 70 70 70 70 71 71 71 71 70 69 69 68 68 69 68 67 67 68 67 68 67 67 66 65 65 66 66
71 71 70 70 70 69 70 70 70 70 70 69 68 68 69 68 68 68 68 68 67 68 68 68 67 66 66 65 64 65 65 64
71 71 70 71 70 69 69 70 70 69 69 68 67 68 68 67 66 67 67 67 67 67 67 67 66 66 65 65 64 62 64 65
70 70 70 70 67 69 69 69 69 69 69 68 68 68 68 66 66 66 66 66 66 66 67 66 66 65 65 64 63 63 63 64
68 69 69 69 67 69 68 68 68 68 68 68 67 67 68 66 66 66 65 66 66 66 66 66 65 65 64 63 63 62 62 61
67 68 68 69 67 67 68 67 68 69 69 68 68 68 67 66 65 65 64 65 65 65 65 65 65 65 64 63 61 60 61 61
65 68 68 68 68 66 67 68 69 68 68 68 68 67 66 66 65 64 63 65 64 64 64 63 62 64 64 62 60 60 61 60
65 66 68 67 67 68 68 68 68 68 68 68 67 66 66 65 65 64 64 65 63 64 63 62 63 63 63 62 59 59 59 58
65 66 68 67 67 67 66 67 66 66 67 67 66 66 66 65 64 64 64 65 64 63 62 62 62 63 62 59 59 56 55 57
65 65 66 67 66 66 65 65 66 66 66 66 66 65 65 64 64 64 64 64 64 62 62 62 62 63 61 61 56 55 54 55
64 66 66 66 66 67 66 66 65 65 65 65 64 65 64 64 64 64 64 64 63 62 61 61 61 61 61 54 54 53 53 51
64 65 66 66 66 66 65 64 64 64 64 64 64 64 64 64 64 64 64 63 62 62 61 61 61 61 61 53 52 53 53 53
64 65 65 65 64 63 62 61 61 63 63 64 64 64 64 64 63 63 63 62 62 62 61 60 60 61 59 55 55 54 53 52
63 64 64 64 64 63 62 61 61 61 62 62 63 64 63 63 62 62 62 62 62 61 60 59 59 60 57 53 52 53 55 54
61 64 63 64 64 62 61 61 61 61 61 61 62 62 63 63 62 62 62 62 61 61 60 58 57 59 59 51 51 50 53 55
59 63 62 64 63 61 60 59 57 59 59 60 61 62 62 62 62 62 62 61 61 61 61 59 58 57 58 54 52 52 51 52
58 62 61 63 62 62 60 59 58 58 59 59 61 61 61 61 62 62 61 61 60 60 60 60 59 57 56 55 52 53 51 52
59 61 60 62 61 62 60 59 57 57 58 60 60 60 59 58 60 61 61 61 60 60 60 60 59 58 58 56 52 51 52 51
58 59 59 61 61 61 60 60 59 58 58 59 59 58 58 57 57 59 60 60 60 60 60 60 59 58 58 56 55 53 54 52
59 59 58 60 60 60 60 59 58 57 59 58 59 58 58 57 57 57 58 59 59 59 59 59 58 58 59 57 55 56 55 54

GFSFLT2_sfc_dewp_096.txt.gz
Dewpoint
68 69 70 69 69 69 70 70 71 70 71 71 71 70 70 70 70 70 69 69 69 69 69 69 69 68 67 66 66 66 66 66
67 68 68 68 68 69 69 70 69 68 69 69 70 69 69 69 69 69 68 68 68 68 68 67 68 67 66 65 65 66 65 65
67 67 67 66 67 69 69 69 68 67 68 69 68 69 68 68 68 68 67 66 67 67 67 66 67 66 66 65 66 66 65 65
67 67 67 66 68 67 67 69 68 68 68 68 68 67 67 67 67 67 66 66 66 66 66 66 66 66 65 65 65 65 65 64
67 67 67 67 67 67 68 68 68 67 67 66 66 66 66 66 66 66 65 66 65 66 66 66 65 65 65 64 64 64 64 64
68 67 67 67 67 66 67 67 67 67 67 66 65 66 64 64 65 64 64 65 63 64 63 64 64 65 65 64 63 64 64 64
68 68 68 67 67 66 66 66 66 66 66 66 65 65 64 64 64 63 63 64 63 62 62 62 63 64 64 64 63 63 63 63
67 67 68 67 66 67 66 67 66 66 66 66 65 66 65 64 64 63 63 63 64 63 62 62 62 64 64 63 63 62 62 62
67 66 67 67 66 66 66 67 66 66 66 65 64 65 65 64 64 64 63 63 63 62 61 62 61 63 62 63 63 62 62 61
67 67 66 67 66 66 66 67 66 66 65 65 64 64 64 64 63 63 64 64 63 62 62 61 60 61 61 61 62 62 61 61
66 66 66 66 66 66 66 66 66 65 64 64 64 64 64 63 62 62 64 64 63 62 62 61 60 60 60 61 61 61 61 61
63 66 66 66 66 65 65 64 64 64 64 64 63 64 63 63 62 62 63 62 61 61 61 60 60 60 61 60 61 61 60 60
62 65 66 66 65 64 63 63 63 63 63 63 62 63 63 62 61 61 62 62 61 60 60 59 60 60 59 59 58 59 59 58
57 64 65 65 65 64 63 63 62 63 63 63 62 62 62 63 61 61 62 62 61 61 60 59 59 60 57 56 53 54 56 57
56 63 64 65 65 64 63 60 60 59 61 62 62 62 62 62 61 61 61 61 60 60 60 59 58 60 58 55 52 51 53 55
52 62 64 64 64 63 62 61 60 60 60 59 61 63 62 61 60 61 62 61 60 60 61 59 59 58 58 59 57 55 51 51
60 63 64 64 63 63 62 60 59 59 59 59 59 62 62 62 61 61 61 61 60 61 60 59 59 59 57 56 57 55 54 52
61 63 63 63 62 61 61 59 58 59 58 58 59 59 60 61 60 61 61 61 59 61 60 59 58 58 58 56 55 53 53 51
56 62 62 62 62 61 60 58 59 58 58 58 58 59 60 60 60 61 61 60 59 61 61 60 59 58 58 57 56 54 53 52
55 61 62 62 61 60 60 59 58 58 58 58 59 59 59 58 58 59 59 60 60 60 60 60 59 59 58 58 57 56 54 53

GFSFLT2_sfc_dewp_099.txt.gz
Dewpoint
68 69 70 70 69 69 69 70 70 71 71 71 71 71 70 71 71 71 70 70 70 70 69 69 69 69 68 66 66 67 65 66
67 68 69 69 69 68 69 69 70 70 70 70 70 70 70 70 70 70 69 69 69 70 69 69 69 68 67 66 66 66 65 65
66 67 68 67 67 69 69 70 69 68 69 68 68 69 69 69 68 68 68 68 68 68 68 68 67 67 66 66 66 65 65 64
65 66 66 66 68 68 69 69 67 67 67 68 69 68 67 68 67 67 67 66 67 67 66 66 66 65 65 66 65 65 65 64
65 66 66 66 67 67 68 68 68 66 67 68 67 67 66 66 66 67 65 66 65 65 65 64 64 64 64 64 65 65 65 64
65 65 66 66 66 66 66 67 67 68 67 66 67 66 65 65 66 65 64 64 63 63 63 64 64 64 64 64 64 64 64 65
66 65 65 66 66 66 66 65 66 66 67 66 66 66 65 64 64 65 64 64 62 62 62 63 64 64 64 64 63 64 64 64
67 66 65 66 66 65 65 66 66 66 66 66 65 65 64 64 63 63 62 63 63 62 62 62 62 63 63 63 63 63 63 63
66 67 67 66 66 65 65 65 65 65 66 65 64 65 64 64 64 63 62 63 62 61 61 62 62 63 62 63 63 63 63 62
66 67 67 67 66 66 66 65 65 65 65 65 64 64 64 63 64 64 62 63 63 62 62 61 61 62 61 62 62 63 62 63
63 66 66 67 66 66 66 66 66 65 65 65 64 64 64 64 64 63 63 63 63 62 62 61 61 61 61 61 62 62 62 62
54 65 66 66 66 65 65 65 66 66 65 65 64 64 64 63 63 63 63 63 62 62 61 61 61 60 61 61 61 62 61 61
53 63 66 66 65 64 64 64 65 65 65 64 64 64 63 63 61 62 63 62 61 62 61 60 60 60 59 59 60 60 60 61
45 61 65 65 65 64 64 64 65 65 64 64 64 63 63 62 61 62 62 61 61 61 60 59 60 60 58 56 53 55 58 60
43 59 64 65 65 64 61 61 61 61 62 62 63 63 63 63 62 62 62 61 60 60 60 59 58 60 57 56 52 51 53 56
45 57 64 65 65 64 62 61 61 61 62 62 61 62 62 62 62 62 62 61 60 60 60 60 59 57 58 58 55 54 52 51
53 52 62 63 64 64 62 61 61 61 61 59 61 61 61 61 62 61 61 61 60 60 60 59 59 58 57 57 56 55 55 53
50 57 61 63 64 64 62 61 59 59 60 59 59 60 61 62 61 61 61 61 60 60 60 60 59 58 59 57 55 53 53 53
48 53 62 63 64 63 62 61 59 59 59 59 58 58 57 61 61 61 60 60 60 59 60 59 59 59 59 57 56 53 53 53
44 49 62 63 63 62 61 59 59 59 59 59 58 58 58 58 59 59 59 60 59 59 60 60 60 59 59 58 57 56 54 54

GFSFLT2_sfc_dewp_102.txt.gz
Dewpoint
69 70 70 70 69 69 69 70 70 70 70 71 71 71 70 71 71 71 71 70 70 70 69 69 69 69 68 67 66 67 66 66
68 69 68 68 69 68 69 69 69 70 70 70 69 70 70 70 70 70 70 70 70 70 69 69 69 68 67 66 66 66 66 66
67 67 67 68 66 68 69 70 69 69 70 69 68 69 69 69 69 69 69 68 69 69 68 68 67 67 66 66 66 66 65 66
65 65 66 66 67 68 69 69 70 69 69 68 68 67 67 68 68 68 68 67 68 68 67 66 66 65 66 66 65 65 65 65
64 65 65 66 66 67 67 67 67 66 66 66 67 67 66 66 66 67 66 66 66 66 65 65 65 65 64 65 65 65 65 65
63 64 65 65 66 66 66 66 68 66 66 67 67 68 66 64 66 65 64 64 63 63 63 63 64 64 63 64 64 64 64 65
64 64 64 65 65 65 65 65 66 66 66 66 68 68 67 65 65 66 63 62 62 62 62 63 63 64 64 63 64 64 64 64
66 65 65 65 65 65 64 65 64 65 65 66 67 67 66 65 65 65 63 63 61 62 62 61 63 64 64 63 64 63 64 64
64 66 65 64 65 64 65 65 64 64 65 66 66 67 66 65 65 64 64 63 61 60 61 61 62 63 63 63 63 63 63 63
59 65 66 64 64 65 64 64 64 64 65 65 65 66 64 64 64 64 63 63 63 62 62 62 61 61 62 62 62 62 63 63
40 63 66 65 65 65 64 64 64 64 65 65 65 65 64 64 65 64 63 63 63 62 62 62 60 61 61 62 62 62 62 63
28 47 65 66 66 66 65 64 65 65 65 65 64 64 64 64 64 63 63 63 62 62 61 61 61 60 61 61 61 62 62 62
28 37 61 66 66 65 64 63 64 65 64 64 64 64 64 64 63 63 63 62 62 62 62 61 60 61 59 59 60 61 61 61
37 40 55 65 65 64 65 64 65 65 65 64 64 64 64 64 63 63 63 63 62 62 61 60 60 61 58 57 54 55 59 61
49 50 53 64 64 65 63 64 63 63 64 64 64 64 64 63 63 63 63 62 61 61 61 60 59 60 59 57 52 52 54 57
47 49 53 61 64 64 62 62 61 62 62 63 64 64 64 63 62 63 62 62 61 61 61 60 59 58 59 58 56 55 52 51
46 47 50 56 64 64 62 62 61 61 63 63 63 63 63 63 62 61 62 62 61 61 60 60 60 59 58 58 56 55 54 52
45 46 48 53 63 64 62 61 61 61 62 61 62 62 62 61 61 61 61 61 60 60 60 60 59 59 59 58 57 54 53 53
43 45 46 50 62 63 63 61 61 60 61 61 61 61 61 60 60 60 61 61 61 60 60 59 59 58 59 58 58 56 54 54
41 43 45 49 61 63 63 63 60 60 61 61 60 60 60 60 60 61 61 60 60 60 59 59 59 59 58 59 58 57 55 55